This demonstration page uses our WeatherBlox Daily Observations layout. Learn more.

Hourly Observations for December 22, 2019

Temp ( °F °C ) Dew Point ( °F °C ) Humidity (%) Winds ( mph kmh ) Pressure ( in mb ) Visibility ( mi km ) Precip ( " mm )
12:15 am 00:15 Clear 36 2.2 24 -4.5 62 62 SSW 8 13 30.18 1022 10 16.0934 0 0
12:35 am 00:35 Clear 34 1.2 24 -4.6 66 66 S 6 9 30.19 1022 10 16.0934 0 0
12:55 am 00:55 Clear 34 1.3 24 -4.6 65 65 SSW 7 11 30.18 1022 10 16.0934 0 0
1:15 am 01:15 Clear 35 1.8 24 -4.6 63 63 SSW 7 11 30.18 1022 10 16.0934 0 0
1:35 am 01:35 Clear 34 1.3 24 -4.7 65 65 SSW 9 15 30.18 1022 10 16.0934 0 0
1:55 am 01:55 Clear 34 1.3 23 -4.8 64 64 SSW 8 13 30.18 1022 10 16.0934 0 0
2:15 am 02:15 Clear 35 1.5 23 -5 62 62 SSW 8 13 30.18 1022 10 16.0934 0 0
2:35 am 02:35 Clear 35 1.8 23 -5 61 61 SSW 9 15 30.18 1022 10 16.0934 0 0
2:55 am 02:55 Clear 35 1.7 23 -5 61 61 SW 10 17 30.18 1022 10 16.0934 0 0
3:15 am 03:15 Clear 36 2.1 23 -5.1 59 59 SSW 10 17 30.18 1022 10 16.0934 0 0
3:35 am 03:35 Clear 36 2 23 -5 60 60 SSW 7 11 30.18 1022 10 16.0934 0 0
3:55 am 03:55 Clear 35 1.7 23 -5 61 61 SW 7 11 30.17 1022 10 16.0934 0 0
4:15 am 04:15 Clear 35 1.5 23 -5.2 61 61 SW 8 13 30.17 1022 10 16.0934 0 0
4:35 am 04:35 Clear 34 1.2 23 -5.2 63 63 SW 8 13 30.16 1021 10 16.0934 0 0
4:55 am 04:55 Clear 33 0.6 22 -5.4 65 65 SW 7 11 30.17 1022 10 16.0934 0 0
5:15 am 05:15 Clear 33 0.6 22 -5.4 65 65 SW 9 15 30.17 1022 10 16.0934 0 0
5:35 am 05:35 Clear 33 0.6 22 -5.5 64 64 SW 6 9 30.16 1021 10 16.0934 0 0
5:55 am 05:55 Clear 32 0 22 -5.6 66 66 SSW 6 9 30.17 1022 10 16.0934 0 0
6:15 am 06:15 Clear 32 0.1 22 -5.5 66 66 S 5 7 30.17 1022 10 16.0934 0 0
6:35 am 06:35 Clear 30 -1.2 22 -5.8 71 71 SW 7 11 30.19 1022 10 16.0934 0 0
6:55 am 06:55 Clear 30 -1.2 22 -5.6 72 72 SSW 6 9 30.19 1022 10 16.0934 0 0
7:15 am 07:15 Clear 32 -0.2 22 -5.6 67 67 SSW 5 7 30.18 1022 10 16.0934 0 0
7:35 am 07:35 Clear 29 -1.5 21 -6.1 71 71 SW 7 11 30.19 1022 10 16.0934 0 0
7:55 am 07:55 Clear 29 -1.6 21 -6 72 72 SW 7 11 30.19 1022 10 16.0934 0 0
8:15 am 08:15 Sunny 28 -2 21 -6.1 74 74 SSW 5 7 30.18 1022 10 16.0934 0 0
8:35 am 08:35 Sunny 29 -1.6 22 -5.8 73 73 SW 6 9 30.18 1022 10 16.0934 0 0
8:55 am 08:55 Sunny 31 -0.4 22 -5.6 68 68 SW 8 13 30.17 1022 10 16.0934 0 0
9:15 am 09:15 Sunny 32 0.1 23 -5.2 68 68 WSW 5 7 30.18 1022 10 16.0934 0 0
9:35 am 09:35 Sunny 35 1.7 23 -4.8 62 62 WSW 6 9 30.17 1022 10 16.0934 0 0
9:55 am 09:55 Sunny 37 2.6 24 -4.5 60 60 WSW 6 9 30.16 1021 10 16.0934 0 0
10:10 am 10:10 Sunny 39 3.7 24 -4.2 57 57 SW 5 7 30.14 1021 10 16.0934 0 0
10:35 am 10:35 Sunny 41 4.9 25 -3.9 53 53 W 6 9 30.14 1021 10 16.0934 0 0
10:55 am 10:55 Sunny 43 6.2 26 -3.5 50 50 SW 3 6 30.13 1020 10 16.0934 0 0
11:15 am 11:15 Sunny 44 6.9 27 -2.8 50 50 SW 8 13 30.11 1020 10 16.0934 0 0
11:35 am 11:35 Sunny 47 8.1 27 -2.7 47 47 SW 6 9 30.09 1019 10 16.0934 0 0
11:55 am 11:55 Sunny 49 9.7 27 -2.6 42 42 SW 7 11 30.07 1018 10 16.0934 0 0
12:15 pm 12:15 Sunny 52 11 28 -2.3 40 40 SW 7 11 30.03 1017 10 16.0934 0 0
12:35 pm 12:35 Sunny 54 12.3 27 -2.6 36 36 SW 9 15 30.02 1017 10 16.0934 0 0
12:55 pm 12:55 Sunny 55 13 28 -2.3 35 35 SW 8 13 30.01 1016 10 16.0934 0 0
1:15 pm 13:15 Sunny 55 13 28 -2.4 35 35 SW 9 15 30 1016 10 16.0934 0 0
1:35 pm 13:35 Sunny 57 13.9 28 -2.2 33 33 SW 9 15 29.99 1016 10 16.0934 0 0
1:55 pm 13:55 Sunny 58 14.4 28 -2.3 32 32 SSW 9 15 29.96 1015 10 16.0934 0 0
2:15 pm 14:15 Sunny 58 14.6 28 -2.1 32 32 SSW 10 17 29.96 1015 10 16.0934 0 0
2:35 pm 14:35 Sunny 59 14.8 29 -1.8 32 32 SSW 10 17 29.95 1014 10 16.0934 0 0
2:55 pm 14:55 Sunny 58 14.5 28 -2.2 32 32 SSW 9 15 29.96 1015 10 16.0934 0 0
3:15 pm 15:15 Sunny 58 14.2 28 -2.3 32 32 S 9 15 29.96 1014 10 16.0934 0 0
3:35 pm 15:35 Sunny 58 14.2 28 -2 33 33 SSW 9 15 29.96 1014 10 16.0934 0 0
3:55 pm 15:55 Sunny 57 13.9 29 -1.7 34 34 S 7 11 29.96 1015 10 16.0934 0 0
4:15 pm 16:15 Sunny 56 13.6 28 -2.2 34 34 S 7 11 29.97 1015 10 16.0934 0 0
4:35 pm 16:35 Sunny 53 11.9 28 -2.5 37 37 S 9 15 29.99 1015 10 16.0934 0 0
4:55 pm 16:55 Sunny 49 9.5 27 -2.9 42 42 S 8 13 30 1016 10 16.0934 0 0
5:15 pm 17:15 Clear 46 7.6 26 -3.3 46 46 S 8 13 30.01 1016 10 16.0934 0 0
5:35 pm 17:35 Clear 43 6.1 25 -3.7 50 50 S 8 13 30.03 1017 10 16.0934 0 0
5:55 pm 17:55 Clear 42 5.5 26 -3.6 52 52 S 8 13 30.03 1017 10 16.0934 0 0
6:15 pm 18:15 Clear 41 5.1 25 -4 52 52 S 7 11 30.04 1017 10 16.0934 0 0
6:35 pm 18:35 Clear 42 5.5 25 -3.7 52 52 S 8 13 30.03 1017 10 16.0934 0 0
6:55 pm 18:55 Clear 42 5.5 26 -3.6 52 52 S 6 9 30.04 1017 10 16.0934 0 0
7:15 pm 19:15 Clear 44 6.5 26 -3.5 49 49 S 8 13 30.03 1017 10 16.0934 0 0
7:35 pm 19:35 Clear 46 7.9 26 -3.3 45 45 S 12 19 30.01 1016 10 16.0934 0 0
7:55 pm 19:55 Clear 45 7 25 -3.7 47 47 S 13 20 30.02 1017 10 16.0934 0 0
8:15 pm 20:15 Clear 44 6.5 25 -3.8 48 48 S 10 17 30.02 1017 10 16.0934 0 0
8:35 pm 20:35 Clear 44 6.6 25 -3.9 47 47 S 10 17 30.01 1016 10 16.0934 0 0
8:55 pm 20:55 Clear 43 6.3 25 -4 48 48 S 14 22 30.02 1016 10 16.0934 0 0
9:15 pm 21:15 Clear 43 6.3 25 -4 48 48 S 14 22 30.01 1016 10 16.0934 0 0
9:35 pm 21:35 Clear 41 5 24 -4.2 52 52 SSW 8 13 30.03 1017 10 16.0934 0 0
9:55 pm 21:55 Clear 39 4.1 24 -4.3 55 55 SSW 6 9 30.05 1017 10 16.0934 0 0
10:15 pm 22:15 Clear 38 3.5 24 -4.5 56 56 SSW 6 9 30.05 1018 10 16.0934 0 0
10:35 pm 22:35 Clear 38 3.5 24 -4.6 56 56 S 5 7 30.06 1018 10 16.0934 0 0
10:55 pm 22:55 Clear 37 3 23 -4.8 57 57 S 6 9 30.07 1018 10 16.0934 0 0
11:15 pm 23:15 Clear 35 1.5 23 -5 62 62 S 5 7 30.08 1019 10 16.0934 0 0
11:35 pm 23:35 Clear 34 1 23 -4.8 66 66 S 5 7 30.08 1018 10 16.0934 0 0
11:55 pm 23:55 Clear 32 0.2 22 -5.4 66 66 Calm 30.07 1018 10 16.0934 0 0

Powered by AerisWeather